Fayetteville, Georgia, United States (30214)
Lat: 33.45N, Lon: 84.45W
Wx Zone: GAZ054
Local Info
Past Weather Observations for Today

NOTE: This archive is for the closest National Weather Service station to Fayetteville. Information may differ from the station used for current weather conditions.

Click here for Long-term Archive

Time Weather Temperature Dewpoint Humidity Pressure Winds Precip Visibility
19:53
Clear
81°F / 27°C 70°F / 21°C 70% 30.01 in
(1016 mb)
Calm - 10SM
18:53
Partly Cloudy
86°F / 30°C 72°F / 22°C 62% 30.01 in
(1016 mb)
Calm - 10SM
17:53
Partly Cloudy
86°F / 30°C 70°F / 21°C 59% 30.01 in
(1016 mb)
SSW 5.8 mph
(SSW 9 kph)
- 10SM
16:53
Partly Cloudy
88°F / 31°C 70°F / 21°C 55% 30.01 in
(1016 mb)
SW 3.5 mph
(SW 6 kph)
- 10SM
15:53
Partly Cloudy
88°F / 31°C 68°F / 20°C 52% 30.01 in
(1016 mb)
Calm - 10SM
14:53
Mostly Cloudy
88°F / 31°C 70°F / 21°C 55% 30.04 in
(1017 mb)
Variable 3.5 mph
(Variable 6 kph)
- 10SM
13:53
Partly Cloudy
86°F / 30°C 70°F / 21°C 59% 30.06 in
(1018 mb)
Calm - 10SM
12:53
Clear
86°F / 30°C 68°F / 20°C 55% 30.09 in
(1019 mb)
Calm - 10SM
11:53
Mostly Cloudy
86°F / 30°C 70°F / 21°C 59% 30.09 in
(1019 mb)
W 5.8 mph
(W 9 kph)
- 10SM
10:53
Partly Cloudy
82°F / 28°C 70°F / 21°C 66% 30.12 in
(1020 mb)
Calm - 10SM
09:53
Partly Cloudy
82°F / 28°C 70°F / 21°C 66% 30.12 in
(1020 mb)
SE 3.5 mph
(SE 6 kph)
- 10SM
08:53
Clear
79°F / 26°C 72°F / 22°C 79% 30.12 in
(1020 mb)
Calm - 10SM
07:53
Clear
75°F / 24°C 72°F / 22°C 89% 30.12 in
(1020 mb)
Calm - 8SM
06:53
Clear
Fog And Mist
72°F / 22°C 70°F / 21°C 94% 30.12 in
(1020 mb)
Calm - 5SM
05:53
Clear
Fog And Mist
68°F / 20°C 66°F / 19°C 94% 30.12 in
(1020 mb)
Calm - 4SM
04:53
Partly Cloudy
Fog And Mist
68°F / 20°C 66°F / 19°C 94% 30.09 in
(1019 mb)
Calm - 5SM
03:53
Partly Cloudy
Fog And Mist
70°F / 21°C 68°F / 20°C 94% 30.09 in
(1019 mb)
Calm - 5SM
02:53
Clear
Fog And Mist
70°F / 21°C 68°F / 20°C 94% 30.09 in
(1019 mb)
Calm - 5SM
01:53
Clear
Fog And Mist
72°F / 22°C 70°F / 21°C 94% 30.09 in
(1019 mb)
Calm - 6SM
00:53
Clear
Fog And Mist
72°F / 22°C 70°F / 21°C 94% 30.09 in
(1019 mb)
Calm - 5SM
Time Weather Temperature Dewpoint Humidity Pressure Winds Precip Visibility


Weather for websites

WeatherForYou.com, LLC is not responsible for any damages or problems caused by this service. Current weather conditions are obtained from the closest station including government and personal stations which may have varying degrees of accuracy. Weather forecasts are derived from the NOAA NDFD. Like all things, this site belongs to Jesus Christ... He just trusts me to maintain it. If you have any questions or comments email webmaster@weatherforyou.com

Copyright © 2014, WeatherForYou.com LLC. All rights reserved.